When you browse on this site, cookies collect data to enhance your experience and personalize the content and advertising you see.
Visit our Privacy Policy to learn more. By continuing to use the site, you agree to this use of cookies and data.
  • In Lithuania
  • List of Countries
  • For 7 days
  • Water Temperature
  • Weather Map
  • Weather Widgets
  • user-avatar
    Login

    Hourly Weather Salva

    Today, 6 June, Saturday

    Time Temperature Precipitation Wind Pressure Humidity
    00:00 +38°C° 0 mm 6 mps 751 mmHg 22%
    01:00 +38°C° 0 mm 7 mps 751 mmHg 24%
    02:00 +38°C° 0 mm 7 mps 751 mmHg 26%
    03:00 +36°C° 0 mm 7 mps 751 mmHg 27%
    04:00 +37°C° 0 mm 8 mps 751 mmHg 30%
    05:00 +37°C° 0 mm 8 mps 752 mmHg 32%
    06:00 +37°C° 0 mm 8 mps 752 mmHg 34%
    07:00 +39°C° 0 mm 9 mps 752 mmHg 29%
    08:00 +43°C° 0 mm 10 mps 752 mmHg 24%
    09:00 +47°C° 0 mm 11 mps 752 mmHg 18%
    10:00 +47°C° 0 mm 11 mps 752 mmHg 16%
    11:00 +48°C° 0 mm 11 mps 752 mmHg 14%
    12:00 +49°C° 0 mm 12 mps 752 mmHg 12%
    13:00 +49°C° 0 mm 11 mps 751 mmHg 12%
    14:00 +49°C° 0 mm 11 mps 751 mmHg 13%
    15:00 +49°C° 0 mm 11 mps 750 mmHg 13%
    16:00 +47°C° 0 mm 10 mps 750 mmHg 15%
    17:00 +44°C° 0 mm 9 mps 750 mmHg 17%
    18:00 +43°C° 0 mm 8 mps 750 mmHg 19%
    19:00 +41°C° 0 mm 7 mps 751 mmHg 23%
    20:00 +39°C° 0 mm 6 mps 751 mmHg 27%
    21:00 +37°C° 0 mm 5 mps 751 mmHg 32%
    22:00 +37°C° 0 mm 5 mps 751 mmHg 32%
    23:00 +36°C° 0 mm 5 mps 751 mmHg 32%

    Tomorrow, 7 June, Sunday

    Time Temperature Precipitation Wind Pressure Humidity
    00:00 +36°C° 0 mm 5 mps 750 mmHg 32%
    01:00 +36°C° 0 mm 6 mps 750 mmHg 34%
    02:00 +35°C° 0 mm 6 mps 750 mmHg 36%
    03:00 +35°C° 0 mm 7 mps 750 mmHg 38%
    04:00 +35°C° 0 mm 8 mps 750 mmHg 40%
    05:00 +35°C° 0 mm 8 mps 751 mmHg 41%
    06:00 +35°C° 0 mm 8 mps 751 mmHg 42%
    07:00 +39°C° 0 mm 10 mps 751 mmHg 34%
    08:00 +42°C° 0 mm 11 mps 751 mmHg 26%
    09:00 +46°C° 0 mm 12 mps 752 mmHg 18%
    10:00 +47°C° 0 mm 12 mps 751 mmHg 16%
    11:00 +48°C° 0 mm 12 mps 751 mmHg 14%
    12:00 +49°C° 0 mm 12 mps 751 mmHg 11%
    13:00 +49°C° 0 mm 12 mps 750 mmHg 12%
    14:00 +49°C° 0 mm 12 mps 750 mmHg 12%
    15:00 +48°C° 0 mm 12 mps 750 mmHg 12%
    16:00 +47°C° 0 mm 10 mps 750 mmHg 14%
    17:00 +44°C° 0 mm 9 mps 750 mmHg 16%
    18:00 +43°C° 0 mm 7 mps 750 mmHg 18%
    19:00 +40°C° 0 mm 6 mps 750 mmHg 21%
    20:00 +39°C° 0 mm 5 mps 750 mmHg 24%
    21:00 +36°C° 0 mm 4 mps 751 mmHg 27%
    22:00 +36°C° 0 mm 4 mps 750 mmHg 27%
    23:00 +36°C° 0 mm 4 mps 750 mmHg 27%

    Day after tomorrow, 8 June, Monday

    Time Temperature Precipitation Wind Pressure Humidity
    00:00 +35°C° 0 mm 4 mps 750 mmHg 27%
    01:00 +35°C° 0 mm 4 mps 750 mmHg 27%
    02:00 +35°C° 0 mm 4 mps 749 mmHg 26%
    03:00 +35°C° 0 mm 5 mps 749 mmHg 26%
    04:00 +35°C° 0 mm 4 mps 749 mmHg 26%
    05:00 +35°C° 0 mm 4 mps 750 mmHg 27%
    06:00 +36°C° 0 mm 4 mps 750 mmHg 28%
    07:00 +39°C° 0 mm 5 mps 750 mmHg 23%
    08:00 +42°C° 0 mm 5 mps 750 mmHg 18%
    09:00 +46°C° 0 mm 6 mps 751 mmHg 13%
    10:00 +47°C° 0 mm 6 mps 751 mmHg 12%
    11:00 +49°C° 0 mm 7 mps 750 mmHg 10%
    12:00 +50°C° 0 mm 7 mps 750 mmHg 9%
    13:00 +50°C° 0 mm 7 mps 750 mmHg 8%
    14:00 +50°C° 0 mm 7 mps 749 mmHg 8%
    15:00 +50°C° 0 mm 8 mps 749 mmHg 8%
    16:00 +47°C° 0 mm 6 mps 749 mmHg 9%
    17:00 +46°C° 0 mm 5 mps 749 mmHg 11%
    18:00 +43°C° 0 mm 4 mps 749 mmHg 13%
    19:00 +41°C° 0 mm 4 mps 750 mmHg 14%
    20:00 +38°C° 0 mm 3 mps 750 mmHg 15%
    21:00 +36°C° 0 mm 2 mps 750 mmHg 16%
    22:00 +34°C° 0 mm 1 mps 750 mmHg 17%
    23:00 +33°C° 0 mm 1 mps 750 mmHg 18%

    9 June, Tuesday

    Time Temperature Precipitation Wind Pressure Humidity
    00:00 +30°C° 0 mm 0 mps 750 mmHg 19%
    01:00 +32°C° 0 mm 1 mps 749 mmHg 19%
    02:00 +32°C° 0 mm 1 mps 749 mmHg 19%
    03:00 +32°C° 0 mm 1 mps 749 mmHg 19%
    04:00 +34°C° 0 mm 2 mps 750 mmHg 18%
    05:00 +35°C° 0 mm 2 mps 750 mmHg 17%
    06:00 +37°C° 0 mm 3 mps 751 mmHg 16%
    07:00 +40°C° 0 mm 4 mps 751 mmHg 14%
    08:00 +43°C° 0 mm 5 mps 751 mmHg 11%
    09:00 +47°C° 0 mm 6 mps 752 mmHg 9%
    10:00 +47°C° 0 mm 6 mps 751 mmHg 9%
    11:00 +49°C° 0 mm 7 mps 751 mmHg 9%
    12:00 +50°C° 0 mm 8 mps 751 mmHg 9%
    13:00 +50°C° 0 mm 8 mps 751 mmHg 9%
    14:00 +50°C° 0 mm 8 mps 750 mmHg 8%
    15:00 +50°C° 0 mm 8 mps 750 mmHg 8%
    16:00 +48°C° 0 mm 8 mps 750 mmHg 13%
    17:00 +44°C° 0 mm 7 mps 750 mmHg 18%
    18:00 +41°C° 0 mm 6 mps 750 mmHg 23%
    19:00 +39°C° 0 mm 5 mps 750 mmHg 28%
    20:00 +36°C° 0 mm 4 mps 751 mmHg 33%
    21:00 +34°C° 0 mm 3 mps 751 mmHg 38%
    22:00 +33°C° 0 mm 3 mps 751 mmHg 39%
    23:00 +31°C° 0 mm 2 mps 750 mmHg 41%

    10 June, Wednesday

    Time Temperature Precipitation Wind Pressure Humidity
    00:00 +30°C° 0 mm 1 mps 750 mmHg 42%
    01:00 +30°C° 0 mm 1 mps 750 mmHg 45%
    02:00 +29°C° 0 mm 1 mps 750 mmHg 48%
    03:00 +28°C° 0 mm 1 mps 749 mmHg 50%
    04:00 +29°C° 0 mm 2 mps 750 mmHg 50%
    05:00 +30°C° 0 mm 2 mps 750 mmHg 51%
    06:00 +31°C° 0 mm 2 mps 751 mmHg 51%
    07:00 +35°C° 0 mm 2 mps 751 mmHg 42%
    08:00 +37°C° 0 mm 3 mps 751 mmHg 34%
    09:00 +40°C° 0 mm 3 mps 752 mmHg 25%
    10:00 +43°C° 0 mm 3 mps 751 mmHg 21%
    11:00 +45°C° 0 mm 3 mps 751 mmHg 17%
    12:00 +46°C° 0 mm 3 mps 751 mmHg 14%
    13:00 +47°C° 0 mm 3 mps 750 mmHg 13%
    14:00 +47°C° 0 mm 3 mps 750 mmHg 13%
    15:00 +48°C° 0 mm 3 mps 749 mmHg 12%
    16:00 +46°C° 0 mm 3 mps 749 mmHg 16%
    17:00 +44°C° 0 mm 3 mps 749 mmHg 21%
    18:00 +40°C° 0 mm 3 mps 749 mmHg 25%
    19:00 +40°C° 0 mm 4 mps 750 mmHg 30%
    20:00 +38°C° 0 mm 4 mps 750 mmHg 35%
    21:00 +36°C° 0 mm 4 mps 751 mmHg 39%
    22:00 +35°C° 0 mm 3 mps 751 mmHg 40%
    23:00 +35°C° 0 mm 2 mps 750 mmHg 41%

    11 June, Thursday

    Time Temperature Precipitation Wind Pressure Humidity
    00:00 +33°C° 0 mm 1 mps 750 mmHg 42%
    01:00 +32°C° 0 mm 1 mps 750 mmHg 42%
    02:00 +32°C° 0 mm 1 mps 749 mmHg 41%
    03:00 +31°C° 0 mm 1 mps 749 mmHg 41%
    04:00 +32°C° 0 mm 1 mps 749 mmHg 38%
    05:00 +33°C° 0 mm 1 mps 750 mmHg 34%
    06:00 +32°C° 0 mm 0 mps 750 mmHg 31%
    07:00 +35°C° 0 mm 0 mps 750 mmHg 26%
    08:00 +38°C° 0 mm 0 mps 750 mmHg 22%
    09:00 +40°C° 0 mm 0 mps 751 mmHg 17%
    10:00 +45°C° 0 mm 1 mps 750 mmHg 14%
    11:00 +48°C° 0 mm 3 mps 750 mmHg 11%
    12:00 +50°C° 0 mm 4 mps 750 mmHg 8%
    13:00 +50°C° 0 mm 4 mps 749 mmHg 8%
    14:00 +50°C° 0 mm 5 mps 749 mmHg 8%
    15:00 +50°C° 0 mm 5 mps 748 mmHg 7%
    16:00 +48°C° 0 mm 5 mps 748 mmHg 10%
    17:00 +45°C° 0 mm 4 mps 748 mmHg 12%
    18:00 +43°C° 0 mm 3 mps 748 mmHg 15%
    19:00 +40°C° 0 mm 3 mps 749 mmHg 19%
    20:00 +38°C° 0 mm 3 mps 749 mmHg 22%
    21:00 +36°C° 0 mm 2 mps 750 mmHg 26%
    22:00 +35°C° 0 mm 2 mps 749 mmHg 28%
    23:00 +32°C° 0 mm 1 mps 749 mmHg 31%
    Show more